OBJECT D, 67366

Orbit data source: Space-Track

You're viewing an Uncataloged Satellite

Recently launched and/or uncataloged satellites may have evolving metadata. Metadata may include but not limited to: Owner, Maufacturer, Bus, Motor, and Mission.

OBJECT D, 67366 is a satellite in SSO that was launched on Sun, 11 Jan 2026 UTC via an FALCON 9 launch vehicle from the Air Force Western Test Range (AFWTR). Unknown objects in Earth's orbit typically refer to objects detected orbiting the Earth but have not yet been identified or cataloged. These objects could be anything from previously untracked satellites, spent rocket stages, debris from satellite collisions, or even natural meteoroids temporarily captured by Earth's gravity.

Loading next visibility...
Identifier
67366, 2026-004D
Orbit
SSO
Country
Flag of TBDTBD
Related business
Manufacturer
DCUBED
Mission
Operational spacecraft
Bus & Motor
CUBESAT 3U, Unknown motor
Mass
5 kg wet, 5 kg dry
Launch date (UTC)
2026-01-11 (3 months ago)
Launch vehicle
FALCON 9
Launch site
Air Force Western Test Range (AFWTR)
Object type
Unknown
Shape & HBR
Unknown shape, 0.1 m
Radar Cross Section
RCS unknown

Expand to show TLE details & history
Last TLE update: 2 days ago

TLE from 2 days ago
0 OBJECT D
1 67366U 26004D   26093.55552485 -.00271364  00000-0 -31361-1 0  9999
2 67366  97.8026  93.3091 0013023  31.7722 328.4277 14.87123001 12191
Epoch: 2026-04-03T13:19Z
TLE epoch observation values (Epoch: 2026-04-03T13:19:57.347Z)
Latitude
-0.00003°
Longitude
61.43219°
Altitude
602.216 km
Speed
7.563 km/s
True Right ascension
06h 13m 14s
True Declination
0° 00' 00"
Sunlit
Object was in daylight at epoch
Visualization orbit readout
Latitude
Unknown
Longitude
Unknown
Altitude
Unknown
Speed
Unknown
Apparent Right ascension
Unknown
Apparent Declination
Unknown
Sunlit
N/A
Visualization observer readout
Local Sidereal Time
19:25:07
Azimuth
Unknown
Elevation
Unknown
Doppler factor
Unknown
Orbital elements
Apogee altitude
613.05 km
Perigee altitude
594.864 km
Semi-major axis
6,982.094 km
Eccentricity
0.0013
Inclination
97.8026°
RAAN
93.3091°
Arg. of periapsis
31.7722°
True anomaly
328.34946°
Mean anomaly
328.4277°
Eccentric anomaly
328.38859°
Mean motion
3.72019 °/min
Orbital period
96.77 mins
BSTAR
-0.031361
Loading maneuver chart data...
Computing Atmospheric mass density...
Loading historical data...
Loading historical data...
Loading historical data...
Loading historical data...
Loading historical data...
Loading historical data...
Loading historical data...

Documentation

Showing up to 5 results
|